Biloxi, MS

2:28 PM CDT on June 23, 2017 (GMT -0500)
Keesler Air Force Base

Weather History for KBIX - June, 2014

Change the Weather History Date:

Friday, June 20, 2014

  Actual Average Record
Temperature  
Mean Temperature 82 °F -  
Max Temperature 91 °F 89 °F 98 °F (1972)
Min Temperature 75 °F 73 °F 64 °F (1976)
Cooling Degree Days 18    
Growing Degree Days 32 (Base 50)    
Moisture  
Dew Point 73 °F    
Average Humidity 79    
Maximum Humidity 95    
Minimum Humidity 56    
Precipitation  
Precipitation 0.22 in - - ()
Sea Level Pressure  
Sea Level Pressure 30.06 in    
Wind  
Wind Speed 5 mph (North)    
Max Wind Speed 23 mph    
Max Gust Speed 31 mph    
Visibility 9 miles    
Events Rain , Thunderstorm    
Averages and records for this station are not official NWS values.
T = Trace of Precipitation, MM = Missing Value Source: NWS Daily Summary

Daily Weather History Graph

Daily Weather History Graph

Search for Another Location

Airport or City:

Trip Planner

Search our weather history database for the weather conditions in past years. The results will help you decide how hot, cold, wet, or windy it might be!

Date:

Astronomy

Jun. 20, 2014 Rise Set
Actual Time 5:53 AM CDT 8:00 PM CDT
Civil Twilight 5:26 AM CDT 8:28 PM CDT
Nautical Twilight 4:52 AM CDT 9:01 PM CDT
Astronomical Twilight 4:16 AM CDT 9:38 PM CDT
Moon 1:09 AM CDT (6/20) 1:56 PM CDT (6/20)
Length of Visible Light 15h 02m
Length of Day
14h 06m
Last Quarter, 40% of the Moon is Illuminated
Jun 20
Last Quarter
Jun 27
New
Jul 5
First Quarter
Jul 12
Full
Jul 18
Last Quarter

Hourly Weather History & Observations

Time (CDT) Temp. Heat Index Dew Point Humidity Pressure Visibility Wind Dir Wind Speed Gust Speed Precip Events Conditions
12:58 AM 80.8 °F 84.4 °F 70.5 °F 71% 30.06 in 10.0 mi Calm Calm - N/A   Clear
1:58 AM 78.4 °F - 72.5 °F 82% 30.06 in 10.0 mi NE 3.5 mph - N/A   Clear
2:58 AM 77.4 °F - 72.0 °F 83% 30.06 in 10.0 mi North 1.2 mph - N/A   Clear
3:58 AM 77.0 °F - 72.3 °F 85% 30.07 in 10.0 mi NNW 1.2 mph - N/A   Clear
4:58 AM 77.0 °F - 72.5 °F 86% 30.08 in 10.0 mi Calm Calm - N/A   Clear
5:58 AM 76.3 °F - 72.7 °F 89% 30.09 in 10.0 mi Variable 1.2 mph - N/A   Clear
6:58 AM 77.9 °F - 72.7 °F 84% 30.11 in 10.0 mi Variable 3.5 mph - N/A   Clear
7:58 AM 81.1 °F 86.0 °F 72.9 °F 76% 30.12 in 10.0 mi NW 5.8 mph - N/A   Clear
8:58 AM 83.8 °F 90.8 °F 73.8 °F 72% 30.12 in 10.0 mi NNW 5.8 mph - N/A   Mostly Cloudy
9:58 AM 86.4 °F 94.2 °F 73.8 °F 66% 30.11 in 10.0 mi Variable 3.5 mph - N/A   Clear
10:58 AM 87.4 °F 94.4 °F 72.7 °F 61% 30.11 in 10.0 mi Variable 1.2 mph - N/A   Clear
11:58 AM 88.9 °F 95.1 °F 71.6 °F 56% 30.10 in 10.0 mi SSW 8.1 mph - N/A   Scattered Clouds
12:58 PM 89.8 °F 98.1 °F 73.2 °F 58% 30.09 in 10.0 mi SSW 9.2 mph - N/A   Scattered Clouds
1:58 PM 90.5 °F 99.7 °F 73.9 °F 58% 30.06 in 10.0 mi WSW 11.5 mph - N/A   Partly Cloudy
2:58 PM 90.5 °F 98.6 °F 73.0 °F 56% 30.04 in 10.0 mi SSW 12.7 mph - N/A   Clear
3:50 PM 87.8 °F 93.8 °F 71.6 °F 58% 30.06 in 10.0 mi ENE 20.7 mph 31.1 mph N/A Thunderstorm Thunderstorm
3:51 PM 87.8 °F 93.8 °F 71.6 °F 58% 30.07 in 10.0 mi ENE 15.0 mph 31.1 mph N/A Thunderstorm Thunderstorm
3:58 PM 84.7 °F 89.7 °F 70.9 °F 63% 30.07 in 10.0 mi ENE 18.4 mph 31.1 mph N/A Thunderstorm Thunderstorm
4:01 PM 78.8 °F - 71.6 °F 78% 30.06 in 10.0 mi NE 23.0 mph 29.9 mph N/A Rain , Thunderstorm Light Thunderstorms and Rain
4:11 PM 75.2 °F - 73.4 °F 94% 30.06 in 2.5 mi NNE 12.7 mph 31.1 mph N/A Rain , Thunderstorm Heavy Thunderstorms and Rain
4:16 PM 75.2 °F - 71.6 °F 89% 30.05 in 2.0 mi NNE 11.5 mph 21.9 mph N/A Rain , Thunderstorm Heavy Thunderstorms and Rain
4:21 PM 75.2 °F - 71.6 °F 89% 30.05 in 5.0 mi Variable 5.8 mph - N/A Rain , Thunderstorm Thunderstorms and Rain
4:33 PM 75.2 °F - 73.4 °F 94% 30.04 in 8.0 mi Variable 4.6 mph - N/A Rain , Thunderstorm Light Rain
4:49 PM 75.2 °F - 73.4 °F 94% 30.04 in 10.0 mi Variable 2.3 mph - N/A   Mostly Cloudy
4:58 PM 75.4 °F - 73.9 °F 95% 30.05 in 10.0 mi West 2.3 mph - 0.22 in   Scattered Clouds
5:58 PM 78.6 °F - 75.9 °F 91% 30.02 in 10.0 mi Variable 2.3 mph - N/A   Clear
6:58 PM 77.2 °F - 73.2 °F 88% 30.04 in 10.0 mi North 1.2 mph - N/A   Clear
7:58 PM 77.2 °F - 73.6 °F 89% 30.04 in 10.0 mi NE 2.3 mph - N/A   Clear
8:58 PM 77.0 °F - 73.2 °F 88% 30.03 in 10.0 mi Variable 2.3 mph - N/A   Clear
9:58 PM 76.6 °F - 73.6 °F 90% 30.04 in 10.0 mi North 1.2 mph - N/A   Clear
10:58 PM 76.5 °F - 73.0 °F 89% 30.04 in 10.0 mi North 1.2 mph - N/A   Clear
11:58 PM 75.7 °F - 72.1 °F 89% 30.03 in 10.0 mi NNE 2.3 mph - N/A   Clear